ISS DEB (44788 NORAD) Tracking and Keplerian Element Data

This shows tracking and keplerian element data for the satellite.

Feedback or suggestion? Click here.




ElementValue
Catalog44788
NameISS DEB
Epoch Orbit976
Epoch Day17.4515523
Epoch Year2020
RAAN18.772
Inclination51.6472
Eccentricity0.0006125
Argument of Perigee141.9453
Mean Anonmoly218.2002
Mean Motion15.51582421
Decay Rate9.425E-05
L11 44788U 98067QT 20017.45155230 .00009425 00000-0 16356-3 0 9990
L22 44788 51.6472 18.7720 0006125 141.9453 218.2002 15.51582421 9765

Live tracking and technical data element details for ISS DEB (NORAD 44788). ISS DEB can be tracked NOW for your location showing map with azimuth and elevation plus other details from your city location.

Track the satellite on the map from your city or location and see movement details for azimuth, elevation, latitude, longitude, range, height, and movement on the map or in text.







IsCatalogInMostPopularTable: catalog: 44788, numindb: 18
Update: records affected: 1



GetName: 44788 ISS DEB

Hit Count: updated at: Sat, 18 Jan 2020 18:25:49 GMT